When you browse on this site, cookies collect data to enhance your experience and personalize the content and advertising you see.
Visit our Privacy Policy to learn more. By continuing to use the site, you agree to this use of cookies and data.
  • In Latvia
  • List of Countries
  • For 7 days
  • Water Temperature
  • Satellite Maps
  • Weather Map
  • Weather Widgets
  • user-avatar
    Login

    Hourly Weather Newcastle

    Today, 24 March, Sunday

    Time Temperature Precipitation Wind Pressure Humidity
    00:00 +24°C° 0.1 mm 3 mps 758 mmHg 88%
    01:00 +24°C° 0.1 mm 3 mps 758 mmHg 89%
    02:00 +24°C° 0 mm 2 mps 758 mmHg 91%
    03:00 +23°C° 0 mm 2 mps 757 mmHg 92%
    04:00 +21°C° 0 mm 2 mps 757 mmHg 93%
    05:00 +23°C° 0 mm 2 mps 757 mmHg 91%
    06:00 +23°C° 0 mm 2 mps 758 mmHg 89%
    07:00 +23°C° 0 mm 1 mps 758 mmHg 87%
    08:00 +26°C° 0 mm 1 mps 758 mmHg 74%
    09:00 +29°C° 0 mm 1 mps 757 mmHg 61%
    10:00 +31°C° 0 mm 3 mps 758 mmHg 51%
    11:00 +34°C° 0 mm 2 mps 757 mmHg 44%
    12:00 +36°C° 0 mm 2 mps 757 mmHg 37%
    13:00 +39°C° 0 mm 2 mps 757 mmHg 29%
    14:00 +36°C° 0 mm 3 mps 756 mmHg 38%
    15:00 +34°C° 0 mm 3 mps 756 mmHg 46%
    16:00 +29°C° 0 mm 4 mps 756 mmHg 61%
    17:00 +27°C° 0 mm 3 mps 756 mmHg 69%
    18:00 +26°C° 0 mm 2 mps 757 mmHg 77%
    19:00 +24°C° 0 mm 1 mps 757 mmHg 86%
    20:00 +24°C° 0 mm 1 mps 757 mmHg 85%
    21:00 +24°C° 0 mm 1 mps 758 mmHg 83%
    22:00 +23°C° 0 mm 1 mps 758 mmHg 82%
    23:00 +23°C° 0 mm 1 mps 758 mmHg 81%

    Tomorrow, 25 March, Monday

    Time Temperature Precipitation Wind Pressure Humidity
    00:00 +24°C° 0 mm 1 mps 757 mmHg 80%
    01:00 +24°C° 0 mm 1 mps 757 mmHg 79%
    02:00 +24°C° 0 mm 1 mps 757 mmHg 80%
    03:00 +24°C° 0 mm 2 mps 757 mmHg 81%
    04:00 +24°C° 0 mm 2 mps 756 mmHg 83%
    05:00 +24°C° 0 mm 2 mps 756 mmHg 82%
    06:00 +24°C° 0 mm 2 mps 756 mmHg 81%
    07:00 +24°C° 0 mm 2 mps 756 mmHg 80%
    08:00 +25°C° 0.2 mm 2 mps 756 mmHg 78%
    09:00 +26°C° 0.2 mm 2 mps 757 mmHg 76%
    10:00 +28°C° 0.2 mm 3 mps 757 mmHg 74%
    11:00 +29°C° 0 mm 3 mps 757 mmHg 66%
    12:00 +30°C° 0 mm 3 mps 756 mmHg 59%
    13:00 +32°C° 0 mm 4 mps 756 mmHg 52%
    14:00 +29°C° 0.4 mm 4 mps 756 mmHg 61%
    15:00 +27°C° 0.4 mm 4 mps 756 mmHg 70%
    16:00 +26°C° 0.4 mm 4 mps 757 mmHg 78%
    17:00 +25°C° 0.7 mm 4 mps 757 mmHg 83%
    18:00 +23°C° 0.7 mm 4 mps 757 mmHg 88%
    19:00 +22°C° 0.7 mm 4 mps 758 mmHg 92%
    20:00 +22°C° 0 mm 4 mps 758 mmHg 92%
    21:00 +22°C° 0 mm 4 mps 758 mmHg 91%
    22:00 +22°C° 0 mm 3 mps 759 mmHg 91%
    23:00 +22°C° 0 mm 3 mps 759 mmHg 90%

    Day after tomorrow, 26 March, Tuesday

    Time Temperature Precipitation Wind Pressure Humidity
    00:00 +22°C° 0 mm 3 mps 759 mmHg 90%
    01:00 +22°C° 0 mm 3 mps 759 mmHg 90%
    02:00 +22°C° 0.1 mm 3 mps 759 mmHg 90%
    03:00 +22°C° 0.1 mm 3 mps 759 mmHg 89%
    04:00 +22°C° 0.1 mm 4 mps 759 mmHg 89%
    05:00 +21°C° 0 mm 4 mps 760 mmHg 86%
    06:00 +21°C° 0 mm 4 mps 761 mmHg 82%
    07:00 +20°C° 0 mm 4 mps 761 mmHg 79%
    08:00 +21°C° 0 mm 4 mps 762 mmHg 69%
    09:00 +22°C° 0 mm 4 mps 762 mmHg 59%
    10:00 +23°C° 0 mm 4 mps 762 mmHg 50%
    11:00 +25°C° 0 mm 4 mps 762 mmHg 44%
    12:00 +27°C° 0 mm 4 mps 762 mmHg 39%
    13:00 +28°C° 0 mm 3 mps 762 mmHg 34%
    14:00 +27°C° 0 mm 4 mps 762 mmHg 34%
    15:00 +26°C° 0 mm 5 mps 762 mmHg 35%
    16:00 +26°C° 0 mm 6 mps 762 mmHg 35%
    17:00 +23°C° 0 mm 6 mps 762 mmHg 43%
    18:00 +21°C° 0 mm 5 mps 763 mmHg 50%
    19:00 +19°C° 0 mm 5 mps 764 mmHg 58%
    20:00 +19°C° 0 mm 5 mps 765 mmHg 62%
    21:00 +17°C° 0 mm 5 mps 765 mmHg 67%
    22:00 +18°C° 0 mm 4 mps 766 mmHg 72%
    23:00 +18°C° 0 mm 4 mps 766 mmHg 72%

    27 March, Wednesday

    Time Temperature Precipitation Wind Pressure Humidity
    00:00 +18°C° 0 mm 4 mps 766 mmHg 72%
    01:00 +18°C° 0 mm 4 mps 766 mmHg 72%
    02:00 +18°C° 0 mm 4 mps 766 mmHg 73%
    03:00 +18°C° 0 mm 4 mps 766 mmHg 74%
    04:00 +18°C° 0 mm 4 mps 766 mmHg 75%
    05:00 +19°C° 0 mm 4 mps 766 mmHg 72%
    06:00 +19°C° 0 mm 4 mps 767 mmHg 70%
    07:00 +20°C° 0 mm 4 mps 767 mmHg 67%
    08:00 +21°C° 0 mm 4 mps 767 mmHg 63%
    09:00 +22°C° 0 mm 4 mps 767 mmHg 60%
    10:00 +23°C° 0 mm 4 mps 768 mmHg 56%
    11:00 +23°C° 0 mm 4 mps 767 mmHg 57%
    12:00 +23°C° 0 mm 4 mps 767 mmHg 58%
    13:00 +23°C° 0 mm 4 mps 767 mmHg 59%
    14:00 +24°C° 0 mm 3 mps 766 mmHg 61%
    15:00 +22°C° 0 mm 3 mps 766 mmHg 62%
    16:00 +22°C° 0 mm 3 mps 766 mmHg 64%
    17:00 +22°C° 0 mm 3 mps 766 mmHg 67%
    18:00 +21°C° 0 mm 3 mps 766 mmHg 70%
    19:00 +21°C° 0 mm 3 mps 766 mmHg 72%
    20:00 +21°C° 0 mm 3 mps 766 mmHg 74%
    21:00 +21°C° 0 mm 3 mps 766 mmHg 75%
    22:00 +21°C° 0 mm 2 mps 767 mmHg 76%
    23:00 +21°C° 0 mm 2 mps 766 mmHg 77%

    28 March, Thursday

    Time Temperature Precipitation Wind Pressure Humidity
    00:00 +20°C° 0 mm 2 mps 765 mmHg 77%
    01:00 +20°C° 0 mm 2 mps 765 mmHg 78%
    02:00 +20°C° 0 mm 2 mps 764 mmHg 78%
    03:00 +20°C° 0 mm 2 mps 764 mmHg 78%
    04:00 +20°C° 0 mm 2 mps 764 mmHg 78%
    05:00 +21°C° 0 mm 2 mps 764 mmHg 80%
    06:00 +21°C° 0 mm 2 mps 764 mmHg 81%
    07:00 +21°C° 0 mm 3 mps 764 mmHg 83%
    08:00 +22°C° 0.1 mm 3 mps 764 mmHg 79%
    09:00 +24°C° 0.1 mm 3 mps 764 mmHg 75%
    10:00 +25°C° 0.1 mm 4 mps 764 mmHg 72%
    11:00 +26°C° 0.1 mm 4 mps 764 mmHg 68%
    12:00 +27°C° 0.1 mm 4 mps 763 mmHg 64%
    13:00 +28°C° 0.1 mm 3 mps 762 mmHg 60%
    14:00 +28°C° 0.1 mm 4 mps 762 mmHg 62%
    15:00 +27°C° 0.1 mm 4 mps 761 mmHg 64%
    16:00 +27°C° 0.1 mm 4 mps 761 mmHg 67%
    17:00 +26°C° 0 mm 4 mps 761 mmHg 71%
    18:00 +23°C° 0 mm 4 mps 761 mmHg 75%
    19:00 +22°C° 0 mm 4 mps 762 mmHg 79%
    20:00 +21°C° 0 mm 4 mps 762 mmHg 80%
    21:00 +21°C° 0 mm 4 mps 762 mmHg 82%
    22:00 +20°C° 0 mm 3 mps 762 mmHg 83%
    23:00 +20°C° 0 mm 3 mps 761 mmHg 86%

    29 March, Friday

    Time Temperature Precipitation Wind Pressure Humidity
    00:00 +19°C° 0 mm 3 mps 761 mmHg 88%
    01:00 +19°C° 0 mm 2 mps 760 mmHg 91%
    02:00 +19°C° 0 mm 2 mps 760 mmHg 92%
    03:00 +19°C° 0 mm 2 mps 760 mmHg 93%
    04:00 +18°C° 0 mm 2 mps 759 mmHg 94%
    05:00 +19°C° 0 mm 2 mps 759 mmHg 91%
    06:00 +19°C° 0 mm 2 mps 760 mmHg 89%
    07:00 +19°C° 0 mm 2 mps 760 mmHg 86%
    08:00 +23°C° 0 mm 2 mps 759 mmHg 76%
    09:00 +25°C° 0 mm 2 mps 759 mmHg 66%
    10:00 +28°C° 0 mm 2 mps 759 mmHg 56%
    11:00 +29°C° 0 mm 2 mps 758 mmHg 51%
    12:00 +31°C° 0 mm 3 mps 757 mmHg 46%
    13:00 +33°C° 0 mm 3 mps 756 mmHg 40%
    14:00 +33°C° 0 mm 3 mps 756 mmHg 42%
    15:00 +33°C° 0 mm 4 mps 755 mmHg 44%
    16:00 +33°C° 0 mm 5 mps 755 mmHg 46%
    17:00 +29°C° 0.2 mm 5 mps 755 mmHg 57%
    18:00 +27°C° 0.2 mm 5 mps 755 mmHg 68%
    19:00 +25°C° 0.2 mm 5 mps 756 mmHg 78%
    20:00 +23°C° 1.2 mm 4 mps 755 mmHg 83%
    21:00 +22°C° 1.2 mm 3 mps 755 mmHg 88%
    22:00 +21°C° 1.2 mm 2 mps 755 mmHg 93%
    23:00 +21°C° 0.2 mm 2 mps 755 mmHg 93%
    Show more